Showing default

GALILEO 12 (269), 41174

Orbit data source: Space-Track

GALILEO 12 (269), 41174 is a payload satellite owned by GNSS Agency (ESA) that was launched on Thu, 17 Dec 2015 UTC via a SOYUZ-ST-B launch vehicle from the French Guiana (FRGUI). Payload-class satellites include a variety of spacecraft equipped with specific instruments for various scientific and technological missions. These include communications satellites like Starlink; space stations such as the ISS; scientific satellites like the Hubble; Earth observation satellites from companies like Planet Labs, Umbra, and HawkEye 360; GPS; miniature CubeSats for education and research; and military/defense satellites.

Loading next visibility...
Identifier
41174, 2015-079A
Orbit
Active
Country
Flag of ESAESA
Related business
Manufacturer
OHB
Mission
Operational Civil Navigation
Bus & Motor
GALILEOSAT, AOCS
Mass
733 kg wet, 660 kg dry
Launch date (UTC)
2015-12-17 (10 years ago)
Launch vehicle
SOYUZ-ST-B
Launch site
French Guiana (FRGUI)
Object type
Payload
Rocket body
Debris
Shape & HBR
Box + 2 Pan, 7.4 m
Radar Cross Section
9.223 m², Large (>1 m²)

Expand to show TLE details & history
Last TLE update: 2 days ago

TLE from 2 days ago
0 GALILEO 12 (269)
1 41174U 15079A   25259.10436748  .00000014  00000-0  00000-0 0  9990
2 41174  55.6569 108.7863 0003205   5.7382 354.3516  1.70473947 60109
Epoch: 2025-09-16T02:30Z
TLE epoch observation values (Epoch: 2025-09-16T02:30:17.35Z)
Latitude
-0.00003°
Longitude
75.92685°
Altitude
23,213.038 km
Speed
3.671 km/s
True Right ascension
07h 15m 11s
True Declination
0° 00' 00"
Sunlit
Object was in daylight at epoch
Visualization orbit readout
Latitude
Unknown
Longitude
Unknown
Altitude
Unknown
Speed
Unknown
Apparent Right ascension
Unknown
Apparent Declination
Unknown
Sunlit
N/A
Visualization observer readout
Local Sidereal Time
01:46:32
Azimuth
Unknown
Elevation
Unknown
Doppler factor
Unknown
Orbital elements
Apogee altitude
23,231.661 km
Perigee altitude
23,212.687 km
Semi-major axis
29,600.311 km
Eccentricity
0.00032
Inclination
55.6569°
RAAN
108.7863°
Arg. of periapsis
5.7382°
True anomaly
354.34798°
Mean anomaly
354.3516°
Eccentric anomaly
354.34979°
Mean motion
0.42619 °/min
Orbital period
844.7 mins
BSTAR
0
Loading maneuver chart data...
Computing Atmospheric mass density...
Loading historical data...
Loading historical data...
Loading historical data...
Loading historical data...
Loading historical data...
Loading historical data...
Loading historical data...
Other satellites on launch #79 in the year 2015 (2015-12-17 UTC)

Documentation

Showing up to 5 results
|